Time,TemperatureF,DewpointF,PressureIn,WindDirection,WindDirectionDegrees,WindSpeedMPH,WindSpeedGustMPH,Humidity,HourlyPrecipIn,Conditions,Clouds,dailyrainin,SoftwareType,DateUTC
2013-03-15 00:14:00,37.4,36.9,29.97,West,270,3.2,-999.0,98,-99.99,,,0.00,Acu-Link.com,2013-03-15 04:14:00,
2013-03-15 00:29:00,37.9,37.4,29.96,SSW,202,2.2,-999.0,98,-99.99,,,0.00,Acu-Link.com,2013-03-15 04:29:00,
2013-03-15 00:44:00,38.3,37.8,29.94,West,270,4.2,-999.0,98,-99.99,,,0.00,Acu-Link.com,2013-03-15 04:44:00,
2013-03-15 01:00:00,38.3,37.8,29.95,West,270,3.2,-999.0,98,-99.99,,,0.00,Acu-Link.com,2013-03-15 05:00:00,
2013-03-15 01:15:00,37.8,37.3,29.95,West,270,4.7,-999.0,98,-99.99,,,0.00,Acu-Link.com,2013-03-15 05:15:00,
2013-03-15 01:30:00,38.1,37.6,29.96,West,270,3.2,-999.0,98,-99.99,,,0.00,Acu-Link.com,2013-03-15 05:30:00,
2013-03-15 01:45:00,37.8,37.3,29.95,ENE,67,2.7,-999.0,98,-99.99,,,0.00,Acu-Link.com,2013-03-15 05:45:00,
2013-03-15 02:00:00,36.3,35.8,29.95,West,270,3.2,-999.0,98,-99.99,,,0.00,Acu-Link.com,2013-03-15 06:00:00,
2013-03-15 02:15:00,35.8,35.3,29.95,West,270,1.7,-999.0,98,-99.99,,,0.00,Acu-Link.com,2013-03-15 06:15:00,
2013-03-15 02:30:00,34.5,34.0,29.93,ESE,112,0.0,-999.0,98,-99.99,,,0.00,Acu-Link.com,2013-03-15 06:30:00,
2013-03-15 02:45:00,35.1,34.6,29.93,NNE,22,0.0,-999.0,98,-99.99,,,0.00,Acu-Link.com,2013-03-15 06:45:00,
2013-03-15 03:00:00,33.8,33.3,29.94,WNW,292,0.0,-999.0,98,-99.99,,,0.00,Acu-Link.com,2013-03-15 07:00:00,
2013-03-15 03:16:00,34.9,34.4,29.93,SW,225,0.0,-999.0,98,-99.99,,,0.00,Acu-Link.com,2013-03-15 07:16:00,
2013-03-15 03:31:00,34.2,33.7,29.94,SSW,202,0.0,-999.0,98,-99.99,,,0.00,Acu-Link.com,2013-03-15 07:31:00,
2013-03-15 04:16:00,29.8,29.3,29.92,East,90,1.7,-999.0,98,-99.99,,,0.00,Acu-Link.com,2013-03-15 08:16:00,
2013-03-15 04:32:00,28.9,28.4,29.91,WNW,292,1.7,-999.0,98,-99.99,,,0.00,Acu-Link.com,2013-03-15 08:32:00,
2013-03-15 04:47:00,30.0,29.5,29.92,SE,135,3.2,-999.0,98,-99.99,,,0.00,Acu-Link.com,2013-03-15 08:47:00,
2013-03-15 05:02:00,29.8,29.3,29.93,ENE,67,0.0,-999.0,98,-99.99,,,0.00,Acu-Link.com,2013-03-15 09:02:00,
2013-03-15 05:17:00,30.4,29.9,29.93,NNE,22,0.0,-999.0,98,-99.99,,,0.00,Acu-Link.com,2013-03-15 09:17:00,
2013-03-15 05:32:00,28.9,28.4,29.93,East,90,0.0,-999.0,98,-99.99,,,0.00,Acu-Link.com,2013-03-15 09:32:00,
2013-03-15 05:47:00,29.8,29.3,29.91,SE,135,0.0,-999.0,98,-99.99,,,0.00,Acu-Link.com,2013-03-15 09:47:00,
2013-03-15 06:02:00,29.7,29.2,29.90,WNW,292,0.0,-999.0,98,-99.99,,,0.00,Acu-Link.com,2013-03-15 10:02:00,
2013-03-15 06:17:00,29.5,29.0,29.91,NNW,337,0.0,-999.0,98,-99.99,,,0.00,Acu-Link.com,2013-03-15 10:17:00,
2013-03-15 06:33:00,28.4,27.9,29.92,West,270,0.0,-999.0,98,-99.99,,,0.00,Acu-Link.com,2013-03-15 10:33:00,
2013-03-15 06:48:00,27.7,27.2,29.93,NE,45,0.0,-999.0,98,-99.99,,,0.00,Acu-Link.com,2013-03-15 10:48:00,
2013-03-15 07:03:00,27.1,19.6,29.93,WNW,292,0.0,-999.0,73,-99.99,,,0.00,Acu-Link.com,2013-03-15 11:03:00,
2013-03-15 07:18:00,26.6,17.8,29.91,NW,315,0.0,-999.0,69,-99.99,,,0.00,Acu-Link.com,2013-03-15 11:18:00,
2013-03-15 07:33:00,26.1,18.0,29.90,NW,315,0.0,-999.0,71,-99.99,,,0.00,Acu-Link.com,2013-03-15 11:33:00,
2013-03-15 07:48:00,26.2,18.1,29.91,NW,315,0.0,-999.0,71,-99.99,,,0.00,Acu-Link.com,2013-03-15 11:48:00,
2013-03-15 08:03:00,30.4,17.8,29.91,NNE,22,0.0,-999.0,59,-99.99,,,0.00,Acu-Link.com,2013-03-15 12:03:00,
2013-03-15 08:18:00,30.7,19.6,29.91,WNW,292,0.0,-999.0,63,-99.99,,,0.00,Acu-Link.com,2013-03-15 12:18:00,
2013-03-15 08:33:00,35.2,23.1,29.92,West,270,0.0,-999.0,61,-99.99,,,0.00,Acu-Link.com,2013-03-15 12:33:00,
2013-03-15 08:49:00,37.9,22.8,29.93,WSW,247,2.2,-999.0,54,-99.99,,,0.00,Acu-Link.com,2013-03-15 12:49:00,
2013-03-15 09:04:00,39.7,25.3,29.92,West,270,0.0,-999.0,56,-99.99,,,0.00,Acu-Link.com,2013-03-15 13:04:00,
2013-03-15 09:19:00,42.3,36.9,29.90,East,90,1.7,-999.0,81,-99.99,,,0.00,Acu-Link.com,2013-03-15 13:19:00,
2013-03-15 09:34:00,41.4,40.1,29.90,West,270,5.8,-999.0,95,-99.99,,,0.00,Acu-Link.com,2013-03-15 13:34:00,
2013-03-15 09:49:00,42.1,41.6,29.90,WSW,247,3.7,-999.0,98,-99.99,,,0.00,Acu-Link.com,2013-03-15 13:49:00,
2013-03-15 10:04:00,42.3,38.7,29.90,North,0,4.2,-999.0,87,-99.99,,,0.00,Acu-Link.com,2013-03-15 14:04:00,
2013-03-15 10:19:00,43.2,31.1,29.90,SW,225,5.3,-999.0,62,-99.99,,,0.00,Acu-Link.com,2013-03-15 14:19:00,
2013-03-15 10:34:00,44.4,30.1,29.89,West,270,5.8,-999.0,57,-99.99,,,0.00,Acu-Link.com,2013-03-15 14:34:00,
2013-03-15 10:49:00,45.7,32.6,29.88,WSW,247,8.3,-999.0,60,-99.99,,,0.00,Acu-Link.com,2013-03-15 14:49:00,
2013-03-15 11:05:00,46.2,34.7,29.88,WNW,292,4.2,-999.0,64,-99.99,,,0.00,Acu-Link.com,2013-03-15 15:05:00,
2013-03-15 11:20:00,47.5,42.0,29.88,NNW,337,5.3,-999.0,81,-99.99,,,0.00,Acu-Link.com,2013-03-15 15:20:00,
2013-03-15 11:35:00,48.4,37.6,29.85,WNW,292,4.7,-999.0,66,-99.99,,,0.00,Acu-Link.com,2013-03-15 15:35:00,
2013-03-15 11:50:00,49.1,38.2,29.83,West,270,6.3,-999.0,66,-99.99,,,0.00,Acu-Link.com,2013-03-15 15:50:00,
2013-03-15 12:05:00,51.1,34.1,29.84,NW,315,5.3,-999.0,52,-99.99,,,0.00,Acu-Link.com,2013-03-15 16:05:00,
2013-03-15 12:20:00,52.2,37.0,29.83,North,0,3.2,-999.0,56,-99.99,,,0.00,Acu-Link.com,2013-03-15 16:20:00,
2013-03-15 12:35:00,53.6,53.0,29.83,ESE,112,7.3,-999.0,98,-99.99,,,0.00,Acu-Link.com,2013-03-15 16:35:00,
2013-03-15 12:50:00,54.3,53.7,29.82,NNW,337,4.7,-999.0,98,-99.99,,,0.00,Acu-Link.com,2013-03-15 16:50:00,
2013-03-15 13:05:00,55.0,54.4,29.82,WSW,247,6.8,-999.0,98,-99.99,,,0.00,Acu-Link.com,2013-03-15 17:05:00,
2013-03-15 13:21:00,57.2,56.6,29.80,South,180,3.7,-999.0,98,-99.99,,,0.00,Acu-Link.com,2013-03-15 17:21:00,
2013-03-15 13:36:00,57.4,56.8,29.79,ENE,67,3.7,-999.0,98,-99.99,,,0.00,Acu-Link.com,2013-03-15 17:36:00,
2013-03-15 14:21:00,60.1,59.5,29.75,SW,225,4.7,-999.0,98,-99.99,,,0.00,Acu-Link.com,2013-03-15 18:21:00,
2013-03-15 14:36:00,60.3,59.7,29.74,SE,135,2.2,-999.0,98,-99.99,,,0.00,Acu-Link.com,2013-03-15 18:36:00,
2013-03-15 14:51:00,60.1,59.5,29.72,West,270,3.2,-999.0,98,-99.99,,,0.00,Acu-Link.com,2013-03-15 18:51:00,
2013-03-15 15:06:00,62.1,61.5,29.71,WNW,292,4.7,-999.0,98,-99.99,,,0.00,Acu-Link.com,2013-03-15 19:06:00,
2013-03-15 15:21:00,62.6,62.0,29.70,NE,45,4.2,-999.0,98,-99.99,,,0.00,Acu-Link.com,2013-03-15 19:21:00,
2013-03-15 15:52:00,63.5,62.9,29.68,NW,315,3.7,-999.0,98,-99.99,,,0.00,Acu-Link.com,2013-03-15 19:52:00,
2013-03-15 16:07:00,63.7,63.1,29.68,NW,315,4.7,-999.0,98,-99.99,,,0.00,Acu-Link.com,2013-03-15 20:07:00,
2013-03-15 16:22:00,64.0,63.4,29.67,WNW,292,5.8,-999.0,98,-99.99,,,0.00,Acu-Link.com,2013-03-15 20:22:00,
2013-03-15 16:37:00,64.6,64.0,29.67,West,270,7.8,-999.0,98,-99.99,,,0.00,Acu-Link.com,2013-03-15 20:37:00,
2013-03-15 16:52:00,64.0,63.4,29.66,West,270,5.8,-999.0,98,-99.99,,,0.00,Acu-Link.com,2013-03-15 20:52:00,
2013-03-15 17:07:00,64.4,63.8,29.66,SW,225,6.3,-999.0,98,-99.99,,,0.00,Acu-Link.com,2013-03-15 21:07:00,
2013-03-15 17:22:00,63.7,63.1,29.66,WSW,247,4.7,-999.0,98,-99.99,,,0.00,Acu-Link.com,2013-03-15 21:22:00,
2013-03-15 17:37:00,63.7,63.1,29.66,NNE,22,3.2,-999.0,98,-99.99,,,0.00,Acu-Link.com,2013-03-15 21:37:00,
2013-03-15 17:53:00,63.1,62.5,29.66,ESE,112,4.2,-999.0,98,-99.99,,,0.00,Acu-Link.com,2013-03-15 21:53:00,
2013-03-15 18:08:00,63.0,62.4,29.65,West,270,7.3,-999.0,98,-99.99,,,0.00,Acu-Link.com,2013-03-15 22:08:00,
2013-03-15 18:23:00,62.8,62.2,29.66,NNE,22,4.7,-999.0,98,-99.99,,,0.00,Acu-Link.com,2013-03-15 22:23:00,
2013-03-15 18:38:00,62.6,62.0,29.66,West,270,7.3,-999.0,98,-99.99,,,0.00,Acu-Link.com,2013-03-15 22:38:00,
2013-03-15 18:53:00,62.1,61.5,29.66,SE,135,4.7,-999.0,98,-99.99,,,0.00,Acu-Link.com,2013-03-15 22:53:00,
2013-03-15 19:08:00,61.9,61.3,29.66,WSW,247,1.7,-999.0,98,-99.99,,,0.00,Acu-Link.com,2013-03-15 23:08:00,
2013-03-15 19:23:00,60.8,60.2,29.67,WNW,292,3.2,-999.0,98,-99.99,,,0.00,Acu-Link.com,2013-03-15 23:23:00,
2013-03-15 19:38:00,59.9,59.3,29.67,ENE,67,3.2,-999.0,98,-99.99,,,0.00,Acu-Link.com,2013-03-15 23:38:00,
2013-03-15 19:53:00,59.2,58.6,29.68,NW,315,4.2,-999.0,98,-99.99,,,0.00,Acu-Link.com,2013-03-15 23:53:00,
2013-03-15 20:09:00,58.5,57.9,29.66,NNW,337,1.7,-999.0,98,-99.99,,,0.00,Acu-Link.com,2013-03-16 00:09:00,
2013-03-15 20:24:00,57.2,56.6,29.64,East,90,0.0,-999.0,98,-99.99,,,0.00,Acu-Link.com,2013-03-16 00:24:00,
2013-03-15 20:39:00,55.0,54.4,29.64,East,90,0.0,-999.0,98,-99.99,,,0.00,Acu-Link.com,2013-03-16 00:39:00,
2013-03-15 20:54:00,51.8,51.3,29.65,NNW,337,0.0,-999.0,98,-99.99,,,0.00,Acu-Link.com,2013-03-16 00:54:00,
2013-03-15 21:09:00,49.8,49.3,29.66,North,0,0.0,-999.0,98,-99.99,,,0.00,Acu-Link.com,2013-03-16 01:09:00,
2013-03-15 21:24:00,48.2,47.7,29.66,ENE,67,0.0,-999.0,98,-99.99,,,0.00,Acu-Link.com,2013-03-16 01:24:00,
2013-03-15 21:39:00,47.1,46.6,29.66,WSW,247,0.0,-999.0,98,-99.99,,,0.00,Acu-Link.com,2013-03-16 01:39:00,
2013-03-15 21:54:00,51.8,51.3,29.66,WSW,247,2.2,-999.0,98,-99.99,,,0.00,Acu-Link.com,2013-03-16 01:54:00,
2013-03-15 22:09:00,54.5,53.9,29.66,South,180,2.7,-999.0,98,-99.99,,,0.00,Acu-Link.com,2013-03-16 02:09:00,
2013-03-15 22:25:00,54.1,53.5,29.67,ENE,67,3.7,-999.0,98,-99.99,,,0.00,Acu-Link.com,2013-03-16 02:25:00,
2013-03-15 22:40:00,53.2,52.6,29.67,SW,225,4.2,-999.0,98,-99.99,,,0.00,Acu-Link.com,2013-03-16 02:40:00,
2013-03-15 22:55:00,53.8,53.2,29.67,WNW,292,2.7,-999.0,98,-99.99,,,0.00,Acu-Link.com,2013-03-16 02:55:00,
2013-03-15 23:10:00,53.1,52.5,29.68,West,270,2.2,-999.0,98,-99.99,,,0.00,Acu-Link.com,2013-03-16 03:10:00,
2013-03-15 23:25:00,52.9,52.4,29.68,NW,315,2.7,-999.0,98,-99.99,,,0.00,Acu-Link.com,2013-03-16 03:25:00,
2013-03-15 23:40:00,52.5,52.0,29.68,ESE,112,0.0,-999.0,98,-99.99,,,0.00,Acu-Link.com,2013-03-16 03:40:00,
2013-03-15 23:55:00,50.0,49.5,29.67,West,270,0.0,-999.0,98,-99.99,,,0.00,Acu-Link.com,2013-03-16 03:55:00,